Volver al catálogo

CZ-6A DEB

ActivoSSO
NORAD 54360·DEBRIS·🇨🇳 China

Lanzado Nov 11, 2022 desde Taiyuan Satellite Launch Center

Loading…

Próximos Pases (próximas 24 horas)

TLE

ActualizadoSource: Space-Track

Época: Sep 14, 2026, 06:01 UTC

1 54360U 22151DF  26257.25126575  .00000787  00000-0  36176-3 0  9992
2 54360  98.7049 252.7032 0086380 276.1161  83.0180 14.22098742198329

Sigue CZ-6A DEB en tiempo real con AllMySat

Download on the App Store